Location: ??
(34.7222°N, 135.7294°E)
Time: 14:46:03
(UTC+00:00)

Daily predictions for brighter satellites

Satellite Brightness Start Highest point End
(mag) Time Altitude Azimuth Time Altitude Azimuth Time Altitude Azimuth
Milstar 3 Cent rocket 4.3 18:08:06 32° SE 18:08:06 32° SE 18:14:58 10° E
SL-16 R/B 3.5 18:51:00 34° SE 18:51:00 34° SE 18:54:10 10° SSE
BREEZE-M DEB (TANK) 4.4 18:52:52 58° N 18:52:52 58° N 19:11:21 10° NE
ADEOS Rocket 4.2 18:52:34 10° SSE 18:55:29 32° SSE 18:55:29 32° SSE
BREEZE-M DEB (TANK) 4.5 19:14:16 21° ESE 19:14:16 21° ESE 19:17:08 10° ENE
Cosmos 2263 Rocket 2.3 19:16:54 61° SSE 19:17:47 74° ESE 19:23:28 10° NNE
CZ-4B R/B 4.2 19:15:50 10° ESE 19:17:02 16° ESE 19:17:02 16° ESE
NOSS 3-4 (A) 3.5 19:21:55 37° SSW 19:24:16 71° ESE 19:30:19 10° NE
NOSS 3-4 (C) 3.5 19:21:54 35° SSW 19:24:24 71° ESE 19:30:27 10° NE
Cosmos 773 Rocket 4.4 19:25:04 45° NNE 19:26:31 62° ENE 19:31:41 10° SSE
Lacrosse 5 2.6 19:27:02 33° S 19:28:59 51° SE 19:33:54 10° NE
ALOS 3.8 19:26:10 10° NNE 19:34:28 17° S 19:35:30 10° SSW
Cosmos 1386 Rocket 4.4 19:24:30 10° SSW 19:30:52 72° W 19:37:15 10° N
Cosmos 783 Rocket 4.4 19:35:49 71° SW 19:35:49 71° SW 19:40:40 10° S
USA 276 4.1 19:43:10 24° SE 19:43:10 24° SE 19:44:37 10° SE
CENTAUR R/B 3.7 19:36:18 16° NNW 19:43:13 59° NE 19:51:57 10° SE
ATLAS 2AS CENTAUR R/B 3.1 19:35:43 10° SSW 19:43:35 79° ESE 19:51:33 10° NNE
USA 234 3.7 19:40:16 10° NE 19:46:44 62° SE 19:53:11 10° SSW
Cosmos 389 Rocket 4.2 19:49:18 23° S 19:49:18 23° S 19:50:43 10° S
FENGYUN 3A 3.5 19:42:27 10° N 19:47:49 65° WNW 19:53:08 10° SSW
OAO 2 Rocket 3.5 19:47:53 49° SW 19:49:06 67° SSE 19:54:11 10° E
Nadezhda 1 Rocket 3.9 19:44:57 18° NNW 19:49:42 62° W 19:55:50 10° S
Okean 3 Rocket 3.6 19:48:01 10° S 19:52:21 76° E 19:56:45 10° N
SJ 16-02 1.6 19:48:39 10° S 19:53:00 69° ESE 19:57:26 10° NNE
Cosmos 1943 4.0 19:47:53 11° N 19:53:14 49° ENE 19:58:43 10° SE
ERS-2 2.1 19:51:28 10° SSE 19:55:05 80° ENE 19:55:46 56° N
ASTRO E2 3.0 19:54:57 51° SSW 19:55:15 52° S 19:59:08 10° ESE
Cosmos 1766 Rocket 3.7 19:50:58 10° S 19:55:25 77° E 19:59:54 10° N
NOSS 3-2 (A) 4.1 19:53:14 23° NW 19:58:42 79° WSW 20:07:23 10° SSE
ADEOS 3.6 19:54:11 10° N 19:59:16 56° WNW 20:04:22 10° SSW
COSMO-SKYMED 1 3.3 19:57:45 10° SSE 20:01:58 53° ENE 20:06:11 10° N
Cosmos 1689 Rocket 4.1 19:59:49 10° SE 20:02:16 26° ENE 20:04:41 10° NNE
SL-8 R/B 4.4 20:04:29 35° WSW 20:05:03 36° SW 20:09:26 10° SSE
Atlas Centaur 2 3.1 20:03:57 16° SW 20:08:19 39° SSE 20:12:59 10° E
Cosmos 489 Rocket 4.4 20:02:18 11° NNW 20:08:28 82° WSW 20:14:47 10° SSE
Meteor PRIRODA 3.8 20:07:02 10° NNE 20:10:46 72° ESE 20:14:28 10° S
OAO 1 Rocket 4.5 20:09:31 29° WSW 20:12:17 76° SSE 20:17:35 10° E
SJ-12 3.7 20:09:03 10° N 20:13:05 68° WNW 20:17:06 10° SSW
BREEZE-M DEB (TANK) 3.9 20:13:57 22° N 20:13:57 22° N 20:16:11 10° NE
GPS 2-04 Rocket1 2.6 20:12:23 39° WSW 20:13:41 78° SSE 20:17:27 10° E
USA 238 DEB 3.9 20:08:29 19° NW 20:14:04 72° WSW 20:21:36 10° SSE
USA 238 3.8 20:08:33 19° NW 20:14:09 72° WSW 20:21:42 10° SSE
OAO 3 Rocket 3.4 20:13:51 33° W 20:15:42 58° SSW 20:20:21 10° ESE
Cosmos 1538 Rocket 3.9 20:13:10 13° NNW 20:17:57 74° WSW 20:23:11 10° S
SWAS 4.5 20:20:55 24° NW 20:23:17 59° WSW 20:27:27 10° S
FALCON 9 DEB 2.8 20:22:57 36° WSW 20:24:00 62° NW 20:27:11 10° NE
Meteor 2-17 Rocket 4.3 20:18:59 10° S 20:25:02 84° W 20:31:06 10° N
Cosmos 1606 3.4 20:25:11 30° W 20:25:16 30° W 20:28:35 10° SSW
SKYMED 3 4.5 20:21:39 10° S 20:25:59 79° W 20:30:19 10° NNW
Cosmos 1933 3.3 20:22:32 10° NNW 20:26:35 62° W 20:30:36 10° S
SL-16 R/B 3.9 20:32:58 13° WSW 20:32:58 13° WSW 20:34:45 10° SW
Cosmos 2084 3.5 20:30:14 16° NNW 20:33:52 83° WSW 20:38:20 10° SSE
CZ-4C R/B 1.8 20:30:11 10° SW 20:34:50 74° WNW 20:40:19 10° NNE
RESURS DK-1 2.6 20:31:21 10° SSW 20:35:28 74° ESE 20:39:37 10° NNE
Cosmos 1898 Rocket 3.6 20:31:45 10° SSW 20:37:02 87° ESE 20:42:24 10° NNE
Cosmos 1844 Rocket 3.1 20:32:09 10° S 20:37:45 69° ESE 20:43:22 10° NNE
H-2A R/B 3.5 20:34:43 10° NNE 20:38:25 45° E 20:42:03 10° S
Cosmos 1844 4.4 20:35:12 10° S 20:40:36 57° ESE 20:46:03 10° NNE
Cosmos 1782 2.8 20:36:52 10° N 20:40:54 85° E 20:44:56 10° S
EO 1 Delta rocket 4.3 20:38:39 10° SSE 20:44:22 75° E 20:49:10 10° N
Milstar 3 Cent rocket 4.3 20:36:57 11° WSW 20:44:41 64° S 21:02:20 10° ESE
Meteor 1-4 Rocket 2.4 20:41:46 10° NNW 20:45:10 59° W 20:48:32 10° S
Meteor 1-26 Rocket 4.2 20:39:51 10° NNW 20:45:34 66° W 20:51:05 10° S
Cosmos 2181 Rocket 4.0 20:39:50 10° NNW 20:45:55 60° W 20:51:54 10° S
Genesis I 3.1 20:43:05 10° SSW 20:46:53 89° E 20:50:43 10° NNE
[s.n.71840] 4.5 20:47:01 13° WSW 20:47:23 13° SW 20:48:45 10° SSW
[s.n.71836] 4.5 20:47:02 13° WSW 20:47:23 13° SW 20:48:46 10° SSW
[s.n.71868] 4.5 20:47:02 13° WSW 20:47:23 13° SW 20:48:46 10° SSW
[s.n.71845] 4.5 20:47:02 13° WSW 20:47:24 13° SW 20:48:46 10° SSW
[s.n.71879] 4.5 20:47:03 13° WSW 20:47:25 13° SW 20:48:47 10° SSW
[s.n.71842] 4.5 20:47:03 13° WSW 20:47:25 13° SW 20:48:47 10° SSW
[s.n.71895] 4.5 20:47:04 13° WSW 20:47:25 13° SW 20:48:48 10° SSW
[s.n.71863] 4.5 20:47:04 13° WSW 20:47:25 13° SW 20:48:48 10° SSW
[s.n.71849] 4.5 20:47:04 13° WSW 20:47:25 13° SW 20:48:48 10° SSW
[s.n.71875] 4.5 20:47:04 13° WSW 20:47:26 13° SW 20:48:48 10° SSW
[s.n.71854] 4.5 20:47:04 13° WSW 20:47:26 13° SW 20:48:49 10° SSW
[s.n.71856] 4.5 20:47:04 13° WSW 20:47:26 13° SW 20:48:49 10° SSW
[s.n.71858] 4.5 20:47:05 13° WSW 20:47:26 13° SW 20:48:49 10° SSW
[s.n.71861] 4.5 20:47:05 13° WSW 20:47:26 13° SW 20:48:49 10° SSW
[s.n.71857] 4.5 20:47:05 13° WSW 20:47:26 13° SW 20:48:49 10° SSW
[s.n.71870] 4.5 20:47:05 13° WSW 20:47:26 14° SW 20:48:49 10° SSW
[s.n.71888] 4.5 20:47:05 13° WSW 20:47:28 13° SW 20:48:50 10° SSW
[s.n.71843] 4.5 20:47:05 13° WSW 20:47:28 13° SW 20:48:50 10° SSW
[s.n.71907] 4.5 20:47:05 13° WSW 20:47:28 13° SW 20:48:50 10° SSW
[s.n.71846] 4.5 20:47:06 13° WSW 20:47:28 13° SW 20:48:50 10° SSW
[s.n.71844] 4.5 20:47:06 13° WSW 20:47:28 13° SW 20:48:50 10° SSW
[s.n.71777] 4.5 20:47:06 13° WSW 20:47:28 13° SW 20:48:50 10° SSW
[s.n.71890] 4.5 20:47:06 13° WSW 20:47:28 13° SW 20:48:50 10° SSW
[s.n.71873] 4.5 20:47:06 13° WSW 20:47:28 13° SW 20:48:50 10° SSW
[s.n.71787] 4.5 20:47:06 13° WSW 20:47:29 13° SW 20:48:50 10° SSW
[s.n.71850] 4.5 20:47:07 13° WSW 20:47:29 13° SW 20:48:51 10° SSW
[s.n.71887] 4.5 20:47:07 13° WSW 20:47:30 13° SW 20:48:51 10° SSW
[s.n.71927] 4.5 20:47:07 13° WSW 20:47:30 13° SW 20:48:51 10° SSW
[s.n.71862] 4.5 20:47:07 13° WSW 20:47:30 13° SW 20:48:51 10° SSW
[s.n.71900] 4.5 20:47:07 13° WSW 20:47:30 13° SW 20:48:52 10° SSW
[s.n.71779] 4.5 20:47:08 13° WSW 20:47:30 13° SW 20:48:52 10° SSW
[s.n.71866] 4.5 20:47:07 13° WSW 20:47:30 13° SW 20:48:52 10° SSW
[s.n.71877] 4.5 20:47:07 13° WSW 20:47:30 13° SW 20:48:51 10° SSW
[s.n.71881] 4.5 20:47:08 13° WSW 20:47:30 13° SW 20:48:52 10° SSW
[s.n.71867] 4.5 20:47:08 13° WSW 20:47:30 13° SW 20:48:51 10° SSW
[s.n.71785] 4.5 20:47:08 13° WSW 20:47:30 13° SW 20:48:52 10° SSW
[s.n.71812] 4.5 20:47:09 13° WSW 20:47:31 13° SW 20:48:53 10° SSW
[s.n.71838] 4.5 20:47:08 13° WSW 20:47:31 13° SW 20:48:52 10° SSW
[s.n.71876] 4.5 20:47:08 13° WSW 20:47:31 13° SW 20:48:53 10° SSW
[s.n.71864] 4.5 20:47:08 13° WSW 20:47:31 13° SW 20:48:52 10° SSW
[s.n.71884] 4.5 20:47:09 13° WSW 20:47:31 13° SW 20:48:53 10° SSW
[s.n.71889] 4.5 20:47:10 13° WSW 20:47:31 13° SW 20:48:53 10° SSW
[s.n.71855] 4.5 20:47:10 13° WSW 20:47:32 13° SW 20:48:54 10° SSW
[s.n.71912] 4.5 20:47:10 13° WSW 20:47:32 13° SW 20:48:54 10° SSW
[s.n.71871] 4.5 20:47:10 13° WSW 20:47:32 13° SW 20:48:54 10° SSW
[s.n.71860] 4.5 20:47:10 13° WSW 20:47:32 13° SW 20:48:55 10° SSW
[s.n.71913] 4.5 20:47:11 13° WSW 20:47:33 13° SW 20:48:55 10° SSW
[s.n.71859] 4.5 20:47:11 13° WSW 20:47:33 13° SW 20:48:55 10° SSW
[s.n.71885] 4.5 20:47:11 13° WSW 20:47:34 13° SW 20:48:56 10° SSW
[s.n.71891] 4.5 20:47:13 13° WSW 20:47:35 13° SW 20:48:57 10° SSW
[s.n.71878] 4.5 20:47:13 13° WSW 20:47:35 13° SW 20:48:58 10° SSW
[s.n.71869] 4.5 20:47:13 13° WSW 20:47:35 13° SW 20:48:58 10° SSW
Cosmos 405 Rocket 3.6 20:44:30 10° S 20:48:03 51° E 20:51:39 10° NNE
SJ-7 4.3 20:44:23 10° N 20:48:27 81° WNW 20:52:32 10° SSW
SKYMED 2 4.1 20:46:00 10° SSW 20:50:03 39° W 20:54:08 10° NNW
CZ-4B R/B 3.2 20:48:45 10° SW 20:50:11 13° W 20:50:11 13° W
Delta 2 Rocket 4.2 20:46:51 14° W 20:50:36 43° SSW 20:54:39 10° SE
Cosmos 2154 Rocket 4.4 20:46:37 10° S 20:52:44 70° E 20:58:57 10° NNE
Envisat 3.1 20:47:53 10° NNE 20:53:00 83° ESE 20:58:04 10° S
FALCON 9 DEB 3.8 20:50:58 13° W 20:53:24 31° NW 20:56:19 10° NNE
NOSS 7 (H) 4.4 20:50:33 10° SW 20:54:30 69° WNW 20:57:38 10° NNE
FALCON 9 DEB 4.0 20:53:57 13° W 20:56:20 28° NW 20:59:10 10° NNE
Cosmos 1515 Rocket 3.5 20:52:29 10° N 20:56:57 78° W 21:01:24 10° S
Cosmos 1937 Rocket 3.4 20:54:23 10° SSW 20:59:29 80° WNW 21:04:41 10° NNE
ATLAS 3B R/B 3.7 20:53:30 10° NNW 21:00:14 49° NE 21:07:14 10° SE
Cosmos 1812 3.8 20:58:06 10° N 21:01:49 47° E 21:05:31 10° SSE
EP 3 3.5 20:59:33 10° SW 21:01:50 71° WNW 21:03:51 10° NNE
Cosmos 2263 Rocket 3.7 20:59:14 10° W 21:02:18 15° NW 21:05:22 10° NNW
Lacrosse 4 Rocket 1.5 20:58:22 10° NNW 21:02:43 77° WSW 21:07:07 10° SSE
Cosmos 1633 4.4 21:01:45 10° W 21:03:09 12° WNW 21:04:33 10° NW
Okean O Rocket 2.2 21:07:13 10° NNE 21:11:38 65° ESE 21:16:03 10° S
Lacrosse 5 3.0 21:08:03 10° W 21:12:11 25° NW 21:16:20 10° NNE
Cosmos 1461 3.7 21:08:34 10° NW 21:12:51 37° WSW 21:16:55 10° S
Cosmos 1151 Rocket 4.2 21:10:59 10° NW 21:14:13 21° W 21:17:27 10° SW
SL-24 DEB 4.4 21:09:44 10° S 21:14:27 83° E 21:19:15 10° N
Cosmos 1500 Rocket 3.8 21:11:00 10° SSW 21:15:09 47° W 21:19:19 10° N
ATLAS 5 CENTAUR R/B 4.5 21:12:17 10° SSE 21:15:18 21° ESE 21:18:28 10° ENE
Cosmos 2327 Rocket 4.5 21:11:08 10° SSW 21:17:14 70° W 21:23:19 10° N
Cosmos 2074 Rocket 4.3 21:12:16 10° SSW 21:18:07 43° W 21:24:00 10° N
